Regional Weather Roundup
Issued by NWS

Home | Current Version | Previous Version | Graphics & Text | Print | Product List | Glossary On
Versions: 1 2 3 4 5 6 7 8 9 10 11 12 13 14 15 16 17 18 19 20 21 22 23 24 25 26 27 28 29 30 31 32 33 34 35 36 37 38 39 40 41 42 43 44 45 46 47 48 49 50
543
ASUS45 KPSR 160710
RWRAZ

ARIZONA HOURLY REGIONAL WEATHER ROUNDUP
NATIONAL WEATHER SERVICE PHOENIX AZ
1200 AM MST WED AUG 16 2017

NOTE: FAIR INDICATES FEW OR NO CLOUDS BELOW 12,000 FEET WITH NO
SIGNIFICANT WEATHER AND/OR OBSTRUCTIONS TO VISIBILITY.

AZZ001>003-036-160800-
NORTHWEST ARIZONA

CITY           SKY/WX    TMP DP  RH WIND       PRES   REMARKS
BULLHEAD CITY  CLEAR     90  43  19 CALM      29.73R
KINGMAN        CLEAR     70  35  27 SE10      29.93S
$$

AZZ004>008-015-016-018-160800-
NORTH CENTRAL ARIZONA

CITY           SKY/WX    TMP DP  RH WIND       PRES   REMARKS
GRAND CANYON   CLEAR     42  28  57 CALM      30.18S
WILLIAMS       CLEAR     48  32  53 S9        30.18S
PRESCOTT       CLEAR     58  34  40 SW8       30.07S
FLAGSTAFF      CLEAR     45  39  79 CALM      30.21S
PAYSON           N/A     63  39  42 CALM      30.10R
PAGE           CLEAR     73  25  16 SW8       29.97R
$$

AZZ009>014-017-160800-
NORTHEAST ARIZONA

CITY           SKY/WX    TMP DP  RH WIND       PRES   REMARKS
WINSLOW        CLEAR     59  44  57 SW8       30.07R
SAINT JOHNS    CLEAR     64  44  48 S6        30.12R
WINDOW ROCK    CLEAR     52  38  58 CALM      30.18R
SHOW LOW       MOCLDY    59  41  51 S7        30.18R
$$

AZZ540-542>544-546-548-160800-
GREATER PHOENIX AREA

CITY           SKY/WX    TMP DP  RH WIND       PRES   REMARKS
PHOENIX        CLEAR     87  35  15 S3        29.78R
BUCKEYE        CLEAR     75  36  23 SW6       29.79R
LUKE AFB       CLEAR     83  50  31 CALM      29.77R
DEER VALLEY    CLEAR     81  28  14 CALM      29.80R
SCOTTSDALE     CLEAR     84  36  18 NE3       29.82S
MESA-GATEWAY   CLEAR     81  43  26 E5        29.82R
$$

AZZ539-553-160800-
SOUTHWEST MARICOPA COUNTY AND PINAL COUNTY

CITY           SKY/WX    TMP DP  RH WIND       PRES   REMARKS
CASA GRANDE    CLEAR     80  45  28 SW5       29.84R
GILA BEND      FAIR      87  55  32 S10       29.78R
$$

AZZ503-504-507>509-160800-
SOUTHEAST ARIZONA

CITY           SKY/WX    TMP DP  RH WIND       PRES   REMARKS
TUCSON         CLEAR     81  46  30 S9        29.95R
DAVIS-MONTHAN  CLEAR     77  45  31 S7        29.94R
NOGALES        CLEAR     70  45  40 SE6       30.05S
SIERRA VISTA   CLEAR     71  45  39 W6        30.10S
DOUGLAS        CLEAR     68  61  78 NE5       30.06S
SAFFORD        CLEAR     77  49  37 NW9       29.93R
$$

AZZ532-160800-
SOUTHWEST ARIZONA

CITY           SKY/WX    TMP DP  RH WIND       PRES   REMARKS
YUMA           NOT AVBL
$$

CAZ041-043-047-048-061-525>527-560>570-160800-
SOUTHERN CALIFORNIA

CITY           SKY/WX    TMP DP  RH WIND       PRES   REMARKS
DOWNTOWN L.A.  NOT AVBL
L.A. AIRPORT   CLOUDY    68  60  75 W7        29.93R
SAN DIEGO      MOCLDY    67  57  70 E5        29.96S
BURBANK        CLOUDY    66  58  75 SW5       29.93S
ONTARIO        PTCLDY    62  57  83 W9        29.94S
RIVERSIDE      CLEAR     64  58  80 NW3       29.94S
PALM SPRINGS   CLEAR     81  51  35 NW10      29.75R
EL CENTRO NAS  CLEAR     83  37  19 W33G40    29.75S
IMPERIAL       CLEAR     81  42  25 W14       29.73R
BLYTHE         CLEAR     83  40  21 S9        29.73R
NEEDLES        CLEAR     91  33  12 SW6       29.74R
$$

NVZ020-UTZ003-160800-
SOUTHERN NEVADA-UTAH

CITY           SKY/WX    TMP DP  RH WIND       PRES   REMARKS
LAS VEGAS      CLEAR     87  37  17 S6        29.80R
SALT LAKE CITY CLEAR     66  36  32 S7        29.98S
$$

NMZ009-TXZ055-160800-
NEW MEXICO-WEST TEXAS

CITY           SKY/WX    TMP DP  RH WIND       PRES   REMARKS
ALBUQUERQUE    PTCLDY    70  38  31 CALM      30.08S
EL PASO        PTCLDY    79  58  48 VRB7      29.99R
$$


........................KEY........................
SKY/WX - SKY CONDITION/WEATHER
TMP    - TEMPERATURE IN FAHRENHEIT
DP     - DEW POINT IN FAHRENHEIT
RH     - RELATIVE HUMIDITY IN PERCENT
WIND   - DIRECTION AND SPEED IN MILES PER HOUR (MPH)
VRB    - VARIABLE WIND DIRECTION
PRES   - MEAN SEA LEVEL PRESSURE IN INCHES OF MERCURY
         F - FALLING PRESSURE   R - RISING PRESSURE
         S - STEADY PRESSURE
VSB    - VISIBILITY IN MILES
HX     - HEAT INDEX IN FAHRENHEIT
WCI    - WIND CHILL INDEX IN FAHRENHEIT
TC     - TEMPERATURE IN CELSIUS WHICH IS ALSO KNOWN AS
         TEMPERATURE IN CENTIGRADE
AFB    - AIR FORCE BASE
         LUKE AFB IS LUKE AIR FORCE BASE
         DAVIS-MONTHAN IS DAVIS-MONTHAN AIR FORCE BASE
NAS    - NAVAL AIR STATION
         EL CENTRO NAS IS EL CENTRO NAVAL AIR STATION
N/A    - NOT AVAILABLE





USA.gov is the U.S. government's official web portal to all federal, state and local government web resources and services.